K0RGI Weather Reports


time (UTC)temp
C
wind
direction
speed
KPH
gust
KPH
rain 1hr
cm
rain 24hr
cm
rain mn
cm
humidity
%
barometer
mb
20260506051411 21 274 4.8 4.8 0.00 0.00 0.00 52 1012.6
20260506050412 21 246 4.8 4.8 0.00 0.00 0.00 51 1012.8
20260506044406 21 280 1.6 1.6 0.00 0.00 0.00 51 1013.0
20260506043406 21 273 6.4 11.3 0.00 0.00 0.00 51 1012.8
20260506042403 21 270 1.6 1.6 0.00 0.00 0.00 51 1012.6
20260506041357 21 272 6.4 8.0 0.00 0.00 0.00 50 1012.6
20260506040352 21 250 3.2 3.2 0.00 0.00 0.00 50 1012.8
20260506035351 21 242 3.2 3.2 0.00 0.00 0.00 49 1012.6
20260506034351 21 157 4.8 8.0 0.00 0.00 0.00 49 1012.6
20260506033351 22 241 3.2 3.2 0.00 0.00 0.00 48 1012.8
20260506032350 22 274 6.4 9.7 0.00 0.00 0.00 48 1013.1
20260506031350 22 157 6.4 11.3 0.00 0.00 0.00 48 1013.0
20260506030346 22 224 4.8 4.8 0.00 0.00 0.00 48 1013.1
20260506025344 21 315 12.9 20.9 0.00 0.00 0.00 49 1013.4
20260506024344 21 281 4.8 4.8 0.00 0.00 0.00 50 1013.2
20260506023343 21 255 4.8 8.0 0.00 0.00 0.00 50 1013.0
20260506022343 21 254 3.2 4.8 0.00 0.00 0.00 50 1012.8
20260506021343 21 273 9.7 16.1 0.00 0.00 0.00 50 1013.0
20260506020338 21 317 9.7 14.5 0.00 0.00 0.00 50 1013.4
20260506015333 21 257 1.6 3.2 0.00 0.00 0.00 50 1013.2
20260506014332 21 240 8.0 11.3 0.00 0.00 0.00 49 1012.7
20260506013332 21 251 4.8 8.0 0.00 0.00 0.00 49 1012.5
20260506012332 21 270 3.2 3.2 0.00 0.00 0.00 49 1012.7
20260506011331 21 280 1.6 3.2 0.00 0.00 0.00 49 1012.6
20260506010326 21 241 4.8 8.0 0.00 0.00 0.00 48 1012.4
20260506005325 21 278 3.2 3.2 0.00 0.00 0.00 48 1012.3
20260506004325 22 284 3.2 4.8 0.00 0.00 0.00 48 1012.7
20260506003323 22 264 3.2 4.8 0.00 0.00 0.00 46 1012.9
20260506002322 22 245 1.6 3.2 0.00 0.00 0.00 45 1012.9
20260506001321 22 222 4.8 8.0 0.00 0.00 0.00 45 1012.6
20260506000323 22 275 0.0 1.6 0.00 0.00 0.00 45 1012.8
20260505235321 22 267 0.0 1.6 0.00 0.00 0.00 44 1013.0
20260505234316 22 291 8.0 11.3 0.00 0.00 0.00 43 1012.9
20260505233317 23 238 3.2 3.2 0.00 0.00 0.00 42 1012.7
20260505232311 22 238 4.8 8.0 0.00 0.00 0.00 43 1012.6
20260505231306 23 266 3.2 3.2 0.00 0.00 0.00 45 1012.5
20260505230306 23 248 1.6 1.6 0.00 0.00 0.00 45 1012.4
20260505225306 23 255 4.8 4.8 0.00 0.00 0.00 46 1012.7
20260505224305 23 257 4.8 9.7 0.00 0.00 0.00 45 1012.7
20260505223305 23 259 1.6 1.6 0.00 0.00 0.00 47 1012.5
20260505222305 23 267 3.2 4.8 0.00 0.00 0.00 47 1012.6
20260505221302 23 250 3.2 3.2 0.00 0.00 0.00 48 1012.7
20260505220257 23 268 1.6 3.2 0.00 0.00 0.00 50 1012.9
20260505215252 23 315 4.8 4.8 0.00 0.00 0.00 48 1012.8
20260505214247 23 245 4.8 8.0 0.00 0.00 0.00 48 1012.8
20260505213248 24 274 4.8 8.0 0.00 0.00 0.00 48 1012.8
20260505212247 24 271 4.8 4.8 0.00 0.00 0.00 47 1013.0
20260505211247 24 258 9.7 11.3 0.00 0.00 0.00 47 1013.0
20260505210246 24 217 1.6 3.2 0.00 0.00 0.00 48 1012.8
20260505205241 25 331 9.7 12.9 0.00 0.00 0.00 46 1013.1
20260505204241 25 286 1.6 1.6 0.00 0.00 0.00 45 1013.6
20260505203241 25 251 6.4 9.7 0.00 0.00 0.00 43 1013.4
20260505202238 25 322 3.2 3.2 0.00 0.00 0.00 42 1013.8
20260505201239 25 275 6.4 9.7 0.00 0.00 0.00 42 1013.8
20260505200234 25 300 3.2 3.2 0.00 0.00 0.00 41 1014.0
20260505195233 25 251 3.2 4.8 0.00 0.00 0.00 41 1014.2
20260505194232 25 293 4.8 4.8 0.00 0.00 0.00 42 1014.3
20260505193231 23 256 4.8 8.0 0.00 0.00 0.00 44 1014.2
20260505192227 23 282 1.6 3.2 0.00 0.00 0.00 43 1014.4
20260505191223 23 261 4.8 11.3 0.00 0.00 0.00 43 1014.5
20260505190219 23 270 3.2 4.8 0.00 0.00 0.00 46 1014.7
20260505185218 23 271 0.0 0.0 0.00 0.00 0.00 45 1014.8
20260505184218 23 268 1.6 1.6 0.00 0.00 0.00 46 1015.2
20260505183218 23 273 3.2 3.2 0.00 0.00 0.00 44 1015.3
20260505182217 23 289 1.6 3.2 0.00 0.00 0.00 44 1015.4
20260505181217 23 322 4.8 9.7 0.00 0.00 0.00 46 1015.8
20260505180216 23 283 1.6 3.2 0.00 0.00 0.00 45 1016.1
20260505175215 23 245 6.4 9.7 0.00 0.00 0.00 48 1015.6
20260505174214 23 264 4.8 9.7 0.00 0.00 0.00 49 1015.9
20260505173213 23 225 1.6 3.2 0.00 0.00 0.00 48 1016.3
20260505172212 23 274 6.4 11.3 0.00 0.00 0.00 47 1016.5
20260505171209 23 268 8.0 11.3 0.00 0.00 0.00 48 1016.6
20260505170209 23 335 4.8 8.0 0.00 0.00 0.00 52 1016.8
20260505165205 22 269 4.8 9.7 0.00 0.00 0.00 50 1016.9
20260505164204 22 257 3.2 4.8 0.00 0.00 0.00 51 1016.9
20260505163200 23 273 1.6 1.6 0.00 0.00 0.00 53 1017.0
20260505162201 22 278 3.2 3.2 0.00 0.00 0.00 50 1017.0
20260505161200 22 283 8.0 12.9 0.00 0.00 0.00 53 1017.0
20260505160155 22 170 4.8 8.0 0.00 0.00 0.00 54 1016.9
20260505153152 22 234 3.2 4.8 0.00 0.00 0.00 56 1016.8
20260505152150 21 265 12.9 16.1 0.00 0.00 0.00 55 1016.8
20260505151149 21 256 3.2 3.2 0.00 0.00 0.00 57 1017.0
20260505150148 21 284 9.7 11.3 0.00 0.00 0.00 55 1016.8
20260505140148 20 126 4.8 4.8 0.00 0.00 0.00 57 1017.1
20260505130135 18 260 0.0 1.6 0.00 0.00 0.00 65 1016.9
20260505124133 17 289 0.0 1.6 0.00 0.00 0.00 68 1016.7
20260505123132 16 197 3.2 3.2 0.00 0.00 0.00 71 1016.7
20260505122132 15 316 1.6 1.6 0.00 0.00 0.00 78 1016.7
20260505121131 14 315 0.0 1.6 0.00 0.00 0.00 81 1016.5
20260505120129 13 315 1.6 1.6 0.00 0.00 0.00 82 1016.6
20260505115127 13 312 0.0 1.6 0.00 0.00 0.00 80 1016.2
20260505114126 13 312 0.0 1.6 0.00 0.00 0.00 78 1016.4
20260505113125 13 310 1.6 1.6 0.00 0.00 0.00 76 1016.0
20260505112120 12 310 1.6 1.6 0.00 0.00 0.00 76 1016.0
20260505111115 12 307 1.6 1.6 0.00 0.00 0.00 80 1015.9
20260505110115 12 310 0.0 0.0 0.00 0.00 0.00 79 1015.8
20260505102108 12 310 1.6 1.6 0.00 0.00 0.00 75 1015.6
20260505101108 12 305 0.0 1.6 0.00 0.00 0.00 77 1015.7
20260505100107 12 261 0.0 0.0 0.00 0.00 0.00 77 1015.9
20260505095105 13 261 0.0 0.0 0.00 0.00 0.00 74 1015.4
20260505094104 13 262 0.0 0.0 0.00 0.00 0.00 70 1015.8
20260505093104 14 265 1.6 1.6 0.00 0.00 0.00 69 1015.4
20260505092100 14 263 0.0 0.0 0.00 0.00 0.00 69 1015.5
20260505091054 14 277 3.2 3.2 0.00 0.00 0.00 69 1015.4
20260505090049 14 265 0.0 0.0 0.00 0.00 0.00 70 1015.6
20260505085045 14 258 1.6 1.6 0.00 0.00 0.00 69 1015.2
20260505084041 14 240 1.6 1.6 0.00 0.00 0.00 70 1015.2
20260505083040 15 258 0.0 0.0 0.00 0.00 0.00 69 1015.4
20260505082039 15 257 0.0 1.6 0.00 0.00 0.00 69 1015.3
20260505081038 15 253 1.6 1.6 0.00 0.00 0.00 69 1015.2
20260505080037 15 261 0.0 1.6 0.00 0.00 0.00 69 1015.1
20260505075036 15 256 0.0 1.6 0.00 0.00 0.00 68 1015.0
20260505074036 15 262 1.6 1.6 0.00 0.00 0.00 68 1014.8
20260505073032 15 265 0.0 1.6 0.00 0.00 0.00 67 1015.0
20260505072029 15 266 1.6 3.2 0.00 0.00 0.00 67 1015.2
20260505071029 15 271 0.0 0.0 0.00 0.00 0.00 67 1015.3
20260505070027 15 257 0.0 1.6 0.00 0.00 0.00 67 1015.3
20260505065025 15 254 1.6 1.6 0.00 0.00 0.00 67 1015.1
20260505064021 15 268 1.6 1.6 0.00 0.00 0.00 67 1015.4
20260505063019 16 266 0.0 0.0 0.00 0.00 0.00 67 1015.2
20260505062020 16 256 0.0 1.6 0.00 0.00 0.00 67 1015.3
20260505061015 16 260 0.0 1.6 0.00 0.00 0.00 66 1015.3
20260505060014 16 266 0.0 0.0 0.00 0.00 0.00 66 1015.2